Temperature
8 10 10 10 9 10 10 10 10 10 9 8 9 9 9 8 7 7 7 7 6 6 6 6 6 6 6 6 6 6 7 7 7 7 7 7 7 7 7 7 8 8 8 8
10 9 9 9 8 9 9 9 9 9 8 8 8 9 9 8 7 7 7 7 6 6 6 5 5 6 6 6 6 6 6 6 6 6 6 6 6 7 7 7 7 7 7 7
10 9 8 8 8 8 9 9 9 8 8 8 8 9 9 8 7 7 6 6 6 5 5 5 5 5 5 5 6 6 6 6 6 6 6 6 6 6 6 6 7 7 7 7
8 8 7 8 8 8 9 8 8 8 8 9 8 9 10 9 8 7 7 6 6 5 5 5 5 5 5 5 5 5 5 5 6 6 6 6 6 6 6 6 6 6 6 6
8 7 7 8 8 8 8 7 7 8 8 8 8 8 10 9 8 8 7 6 5 5 5 4 4 5 5 5 5 5 5 5 5 5 5 5 5 5 5 5 5 6 6 6
7 6 7 7 7 7 7 7 8 7 8 8 8 9 10 9 8 8 7 6 5 5 4 4 4 4 4 5 5 5 5 5 5 5 5 5 5 5 5 5 5 5 5 5
7 7 6 6 7 7 7 8 9 9 9 9 8 8 9 9 7 7 7 6 5 4 4 4 4 4 4 4 4 4 4 4 4 5 4 4 4 5 5 5 5 5 5 5
7 8 7 6 7 7 7 8 8 9 10 10 8 8 9 8 7 6 5 5 4 4 4 4 4 4 4 4 4 4 4 4 4 4 4 4 4 4 4 4 4 4 5 5
8 8 6 6 6 7 7 7 7 7 7 7 9 9 8 7 6 6 5 5 4 4 4 3 3 3 3 3 3 3 3 4 4 4 4 4 4 4 4 4 4 4 4 4
7 6 6 5 6 5 7 7 7 7 8 9 9 9 9 8 7 6 6 5 4 4 3 3 3 3 3 3 3 3 3 3 3 3 3 4 4 4 4 4 4 4 4 4
6 6 6 6 6 6 6 6 6 7 7 8 9 10 8 7 7 6 6 4 4 3 3 3 3 3 3 3 3 3 3 3 3 3 3 3 4 4 4 4 4 4 4 4
5 6 6 6 5 5 6 6 6 7 6 6 8 9 7 6 6 5 5 4 3 3 3 3 2 2 2 2 2 3 3 3 3 3 3 3 3 3 3 4 4 4 4 4
4 5 6 7 5 4 4 5 5 5 6 6 7 9 6 6 5 5 4 4 3 3 3 2 2 2 2 2 2 2 2 2 2 3 3 3 3 3 3 3 3 3 3 3
4 4 5 7 7 5 4 4 4 5 6 7 7 8 7 6 6 5 4 3 3 2 2 2 2 2 2 2 2 2 2 2 2 2 2 2 2 3 3 3 3 3 3 3
4 4 3 4 4 4 4 4 4 4 6 6 7 7 7 6 5 4 3 3 2 2 2 2 2 1 2 2 2 2 2 2 2 2 2 2 2 2 2 2 2 2 2 2
3 3 3 3 3 3 3 4 4 4 5 5 5 6 6 5 4 4 3 2 2 2 1 1 1 1 1 1 1 1 2 2 2 2 2 2 2 2 2 2 2 2 2 2
2 2 3 5 3 3 5 4 4 4 4 5 5 6 6 4 4 3 2 2 1 1 1 1 1 1 1 1 1 1 1 1 1 1 1 1 1 1 1 2 2 2 1 1
1 2 2 4 3 4 7 4 4 4 4 4 4 5 4 4 3 2 2 1 1 1 1 1 1 1 1 1 1 1 1 1 1 1 1 1 1 1 1 1 1 1 1 1
1 2 2 3 4 5 6 4 3 3 4 4 3 4 3 2 2 2 2 1 1 0 1 1 1 1 1 1 1 1 1 1 1 1 1 1 1 1 1 1 1 1 1 1
-0 1 2 2 4 5 6 3 2 3 4 4 3 3 2 1 4 4 2 1 0 0 0 0 0 0 0 1 0 0 0 0 0 0 1 1 1 1 1 0 0 0 0 0
1 1 1 2 3 5 4 1 2 4 5 3 2 2 1 2 3 2 1 1 0 0 0 0 0 0 0 0 0 0 0 0 0 0 0 0 0 0 0 0 0 0 -0 -0
2 2 2 2 3 5 2 1 3 4 3 2 1 1 1 1 1 1 1 0 -0 -0 -0 -0 -0 -0 -0 -0 -1 -1 -1 -0 -0 -0 -0 -0 -0 -0 -0 -0 -0 -0 -1 -1
1 3 3 3 5 3 1 2 2 2 1 1 1 1 0 0 0 0 0 -0 -0 -1 -1 -1 -1 -1 -1 -1 -1 -1 -1 -1 -1 -1 -1 -1 -1 -1 -1 -1 -1 -1 -1 -2
1 -1 1 1 2 2 1 1 1 1 1 1 1 1 0 -0 -0 -0 -0 -1 -1 -1 -1 -1 -1 -1 -1 -1 -1 -1 -1 -1 -1 -1 -2 -2 -1 -1 -1 -1 -2 -2 -2 -2
2 -0 -0 1 2 1 1 1 2 1 1 1 1 1 0 -0 -0 -1 -1 -1 -1 -2 -2 -2 -2 -2 -1 -2 -2 -1 -2 -2 -2 -2 -2 -2 -2 -2 -2 -2 -2 -2 -2 -3
0 0 1 3 3 2 2 3 2 1 1 1 1 0 -0 -0 -0 -1 -1 -1 -1 -2 -2 -2 -2 -2 -2 -2 -2 -2 -2 -2 -2 -2 -2 -2 -3 -2 -3 -3 -3 -3 -3 -3
Wind_Speed
0 2 2 3 3 3 4 5 6 6 4 6 9 10 8 6 5 5 5 5 4 4 4 4 4 3 3 3 3 3 1 1 1 1 2 2 2 2 1 1 1 1 2 3
3 3 3 2 2 3 4 5 6 6 4 5 8 11 9 6 6 5 5 5 5 4 4 4 4 3 3 3 3 3 2 2 2 2 2 2 2 2 2 1 2 1 2 2
4 1 2 3 2 3 4 6 6 7 7 4 6 7 5 5 5 5 5 5 4 3 4 4 4 4 4 4 3 3 3 3 3 2 2 2 2 2 2 2 2 2 2 2
2 2 3 3 3 4 5 4 6 6 6 3 3 5 4 4 4 4 4 5 5 4 4 4 4 4 4 4 3 3 4 3 3 3 3 4 3 3 3 3 2 2 2 3
2 2 3 4 3 4 3 4 6 6 6 5 4 5 5 3 4 5 5 5 5 5 5 5 4 4 4 4 3 3 4 4 3 3 4 4 4 3 3 3 3 3 2 2
1 1 2 2 2 2 2 3 3 4 4 5 4 5 5 2 4 5 5 5 5 5 5 5 5 4 4 4 4 4 4 4 4 4 4 5 5 4 4 4 4 3 2 2
2 2 1 1 0 1 2 2 2 2 3 3 1 5 5 2 3 4 4 5 5 5 5 5 5 5 5 5 5 4 5 5 4 4 4 5 5 6 6 5 4 4 3 3
3 3 2 2 2 2 3 3 2 3 4 3 3 6 4 1 2 3 4 4 4 5 5 5 6 5 5 5 5 5 5 5 4 4 5 5 5 5 4 5 4 4 3 3
3 2 1 1 1 2 2 2 2 2 3 4 5 4 5 2 3 4 4 4 5 6 6 6 6 6 5 5 5 5 5 5 5 5 5 5 5 5 5 5 4 3 3 3
2 2 1 1 2 0 1 2 2 3 3 4 5 5 4 4 5 5 5 5 6 6 6 6 6 6 5 5 5 5 5 5 5 5 4 4 4 5 4 3 4 3 4 3
2 2 1 2 4 4 3 3 3 2 3 4 4 4 1 3 4 5 6 5 6 6 6 6 6 6 5 5 5 5 4 4 5 5 4 4 4 4 4 3 3 3 3 3
2 2 3 4 1 2 4 4 5 3 4 4 5 4 1 3 4 4 6 6 6 6 5 6 6 5 5 5 5 5 4 4 4 4 3 3 4 4 3 2 2 2 3 3
3 2 2 2 2 2 3 4 5 3 3 5 6 5 1 4 6 5 6 7 6 6 6 5 5 5 6 6 5 5 5 5 4 3 3 3 3 3 2 2 2 2 2 2
2 3 5 6 4 2 5 6 6 6 6 7 9 11 9 9 9 8 7 7 6 6 5 5 5 5 6 6 6 5 5 5 4 3 3 3 3 2 2 2 2 2 2 2
2 3 5 8 7 5 7 8 9 11 11 9 10 12 12 10 10 9 8 7 6 6 6 6 6 6 6 6 6 5 5 5 4 4 3 4 3 2 2 2 1 1 1 1
1 2 3 5 4 5 8 9 10 11 11 13 14 15 11 9 7 7 7 6 7 7 7 7 7 6 6 6 6 5 5 5 4 4 4 3 2 2 1 1 0 0 0 1
3 3 2 4 4 4 8 9 11 8 9 10 12 12 7 7 7 7 7 6 7 7 7 7 7 6 6 6 5 5 4 3 3 3 3 3 2 2 1 0 0 0 0 0
4 3 2 3 2 6 3 0 5 9 11 11 11 10 8 8 8 7 6 6 7 7 7 7 7 6 6 5 5 4 3 2 3 3 3 2 2 2 1 0 0 0 0 0
3 4 2 2 4 8 5 2 3 6 8 7 10 10 7 6 6 5 3 4 6 6 6 6 6 5 5 5 4 3 2 2 2 2 2 2 2 2 1 0 1 0 0 0
2 3 3 3 4 6 2 1 1 2 5 3 6 7 5 3 5 5 3 5 5 5 5 5 5 4 4 4 4 2 2 2 2 3 3 2 1 1 1 1 1 0 0 0
3 4 6 7 7 8 2 1 2 3 4 3 4 5 5 5 5 5 4 4 4 4 4 4 3 3 3 3 3 2 1 2 2 2 2 2 1 1 1 1 0 0 0 1
7 6 7 6 7 7 4 5 5 4 4 3 5 5 5 6 6 5 4 4 4 4 4 4 3 3 3 3 2 2 2 2 2 2 2 2 2 1 1 0 0 0 0 1
8 7 5 8 7 3 6 6 4 3 4 5 5 5 5 6 6 5 4 4 3 4 4 3 3 3 3 3 1 2 3 2 2 1 2 2 2 2 1 0 1 1 1 0
6 4 5 7 10 9 8 8 7 6 7 6 6 5 5 6 6 5 4 4 3 3 3 3 3 3 3 3 2 2 2 2 1 1 1 1 1 2 2 1 1 1 0 0
6 6 6 10 10 9 9 10 9 7 6 6 5 5 5 6 6 5 4 4 3 3 3 3 3 3 4 3 3 2 2 1 1 1 1 1 1 1 1 1 1 1 0 0
8 9 9 9 7 6 6 5 6 7 7 6 5 5 5 5 5 5 4 4 4 3 3 3 4 3 3 3 3 2 2 1 1 0 1 1 1 0 1 1 2 3 2 3
Wind_Direction
106 168 190 213 225 248 236 245 270 285 289 273 260 266 270 263 251 260 269 274 272 285 306 321 322 313 307 303 299 294 295 303 308 315 288 275 272 268 266 286 283 294 311 291
179 209 217 208 215 227 235 251 282 295 297 277 269 270 265 245 242 251 259 269 273 291 314 323 322 323 311 301 297 295 286 281 281 271 276 263 270 264 264 274 294 299 303 296
206 170 188 206 205 231 241 249 273 286 303 256 276 270 237 232 235 244 260 272 279 289 300 308 312 311 310 307 298 289 282 268 263 265 282 263 259 260 257 256 265 288 287 280
211 211 206 213 227 247 247 255 264 267 276 265 261 282 251 233 239 258 267 273 279 290 293 299 305 308 303 301 294 283 277 267 262 254 249 252 247 249 260 258 260 270 285 284
198 195 208 225 242 243 255 276 264 257 255 266 239 252 267 223 254 280 281 281 287 291 295 303 306 306 305 305 295 287 283 273 266 256 251 258 251 253 257 256 255 262 264 276
230 220 236 248 285 236 259 278 253 227 232 249 235 242 271 240 255 286 295 295 301 302 305 308 310 308 309 313 308 293 283 277 268 261 259 256 250 247 246 246 245 254 253 257
228 207 206 218 241 188 241 250 271 245 236 250 196 246 259 257 261 272 279 291 305 312 309 305 309 311 309 310 310 298 288 283 277 269 264 256 255 244 240 240 242 248 248 250
225 225 196 206 223 216 210 234 252 269 273 291 247 248 270 325 293 286 283 289 304 313 312 311 310 311 303 300 299 295 290 285 281 274 268 260 263 251 243 239 242 245 250 252
225 237 109 236 259 205 189 219 284 266 285 273 255 267 278 283 295 299 300 302 305 310 313 315 318 320 316 310 305 298 292 290 286 275 268 263 267 257 252 243 241 243 250 247
230 239 239 232 186 152 274 172 187 223 264 272 272 267 274 282 291 301 302 299 307 312 317 318 319 322 319 314 309 306 296 292 290 281 269 262 267 261 252 244 243 242 243 240
217 222 232 215 219 211 176 185 217 230 258 262 277 274 309 282 296 296 296 301 304 307 313 316 318 323 323 319 315 310 306 303 298 288 269 268 273 270 252 240 245 246 245 239
199 223 249 244 258 293 233 223 207 231 240 239 267 278 38 309 303 299 302 305 308 309 313 316 318 323 324 320 316 313 312 308 302 298 293 283 273 268 267 258 252 253 249 245
170 191 255 237 201 203 232 236 234 243 242 238 250 266 354 324 316 312 309 310 309 313 318 321 321 323 323 320 319 316 314 310 304 307 309 296 286 281 274 273 261 242 238 241
174 209 233 251 283 229 241 237 223 218 235 248 250 270 292 309 311 313 311 310 310 309 313 315 314 316 318 318 317 315 316 315 312 306 302 298 286 285 286 278 260 240 235 235
202 236 245 266 278 261 251 248 228 225 237 249 265 274 285 295 298 302 305 308 310 310 309 308 308 310 313 316 316 315 317 320 320 317 309 302 298 296 290 281 267 257 251 248
196 228 251 268 267 269 265 257 239 239 245 251 267 275 282 293 295 297 302 303 303 306 306 306 305 307 307 308 307 311 316 318 319 311 304 309 307 293 287 287 263 243 283 279
186 190 241 269 298 284 264 247 227 231 232 235 252 268 283 291 293 293 296 296 295 300 303 303 302 299 300 301 301 300 307 313 311 305 307 314 304 291 286 275 184 192 319 325
186 189 225 276 289 248 268 64 224 239 248 241 253 270 276 283 293 286 276 284 292 296 300 303 305 304 304 303 299 299 305 308 302 304 314 317 304 294 299 312 261 276 280 266
200 186 201 228 261 273 272 232 223 236 266 248 255 269 282 301 296 276 271 278 290 295 297 299 301 299 301 304 303 299 299 305 307 316 318 313 303 297 291 255 258 267 250 251
152 188 204 213 244 254 270 66 296 228 265 258 255 263 271 277 284 297 306 301 303 306 309 310 312 311 310 312 309 292 290 300 310 314 319 323 310 293 283 269 252 237 173 108
174 191 213 227 243 263 259 156 164 226 294 318 267 263 248 249 278 304 296 293 298 305 313 315 312 311 314 314 306 296 291 301 312 321 334 344 334 302 280 276 249 135 89 61
194 194 203 204 227 251 158 156 202 265 314 291 283 275 261 268 288 297 288 290 301 311 315 318 318 318 322 316 305 304 304 320 334 344 355 357 355 350 297 251 98 77 87 73
215 214 215 213 234 289 182 214 246 275 275 281 286 286 272 271 276 287 285 287 292 297 306 311 314 317 322 320 310 299 312 328 341 356 359 8 13 13 19 86 118 110 87 67
227 215 233 256 262 266 252 255 260 261 265 273 276 278 270 269 273 278 281 287 293 294 295 303 306 310 314 318 314 308 314 316 324 344 353 12 26 25 28 33 55 80 67 92
233 195 226 254 269 280 260 245 249 253 259 267 276 273 264 263 268 270 275 280 283 287 292 294 292 296 303 310 313 322 323 319 325 337 352 8 25 35 35 32 22 7 3 327
220 211 220 247 250 242 266 257 236 240 251 255 262 271 266 253 255 261 267 268 269 274 280 286 291 297 306 311 313 321 320 299 283 304 329 344 359 36 73 68 48 44 41 35
Height
1521 1520 1518 1519 1520 1519 1518 1517 1516 1516 1517 1518 1512 1509 1508 1510 1510 1508 1507 1507 1506 1505 1504 1502 1501 1500 1499 1498 1498 1497 1496 1496 1495 1495 1495 1494 1494 1494 1494 1494 1494 1494 1494 1494
1519 1519 1521 1521 1521 1520 1518 1517 1515 1515 1516 1515 1511 1506 1505 1506 1506 1506 1505 1504 1503 1502 1501 1499 1498 1496 1496 1495 1494 1493 1493 1493 1493 1493 1493 1492 1492 1492 1491 1491 1491 1491 1491 1491
1516 1520 1522 1521 1520 1519 1517 1516 1515 1516 1515 1514 1513 1500 1500 1502 1503 1503 1503 1502 1500 1499 1498 1497 1495 1494 1494 1493 1492 1491 1491 1491 1491 1491 1490 1490 1490 1489 1489 1488 1487 1488 1488 1488
1519 1522 1522 1520 1519 1518 1515 1517 1517 1516 1514 1507 1510 1499 1492 1496 1498 1499 1499 1499 1498 1497 1496 1495 1493 1492 1491 1490 1489 1489 1488 1488 1488 1488 1487 1487 1486 1486 1485 1485 1484 1484 1485 1485
1518 1521 1521 1519 1519 1519 1516 1517 1516 1514 1512 1510 1506 1504 1489 1493 1494 1495 1496 1496 1496 1495 1494 1492 1491 1490 1489 1488 1487 1486 1486 1485 1484 1484 1484 1483 1484 1483 1482 1482 1482 1481 1481 1481
1521 1523 1522 1520 1521 1520 1519 1517 1514 1513 1510 1507 1502 1501 1488 1489 1492 1492 1494 1494 1494 1493 1492 1491 1490 1489 1487 1486 1485 1484 1483 1482 1482 1481 1480 1481 1480 1480 1479 1479 1478 1478 1477 1478
1519 1520 1521 1522 1519 1519 1518 1514 1508 1505 1502 1496 1502 1499 1489 1489 1492 1492 1493 1493 1492 1491 1490 1489 1487 1486 1485 1483 1482 1481 1479 1479 1478 1477 1477 1477 1477 1477 1476 1476 1475 1475 1474 1474
1515 1513 1518 1519 1518 1517 1516 1513 1511 1506 1496 1492 1500 1495 1486 1490 1492 1492 1492 1492 1491 1490 1488 1487 1485 1484 1482 1481 1479 1478 1477 1475 1475 1474 1474 1474 1474 1473 1473 1473 1472 1471 1471 1471
1513 1513 1519 1520 1519 1518 1516 1514 1515 1513 1510 1506 1491 1490 1489 1490 1490 1491 1490 1490 1489 1488 1486 1485 1483 1481 1480 1478 1477 1476 1474 1472 1471 1471 1471 1471 1470 1469 1470 1469 1469 1468 1467 1468
1516 1517 1517 1519 1519 1520 1517 1515 1516 1513 1506 1496 1487 1486 1483 1485 1487 1488 1488 1488 1487 1486 1484 1483 1481 1479 1478 1476 1475 1473 1471 1470 1469 1468 1467 1467 1467 1466 1466 1465 1465 1464 1464 1464
1518 1518 1517 1518 1516 1513 1518 1518 1514 1510 1508 1500 1489 1482 1484 1486 1487 1487 1487 1487 1486 1485 1483 1482 1480 1478 1476 1474 1472 1470 1468 1467 1465 1464 1464 1463 1463 1463 1462 1462 1461 1461 1461 1461
1518 1516 1514 1514 1517 1518 1514 1512 1512 1510 1508 1506 1496 1488 1487 1488 1488 1488 1487 1486 1485 1484 1482 1480 1478 1476 1473 1471 1469 1467 1465 1464 1462 1461 1460 1460 1460 1459 1459 1458 1458 1458 1458 1458
1518 1518 1512 1507 1515 1519 1516 1514 1513 1512 1508 1502 1495 1487 1488 1488 1487 1487 1486 1485 1483 1482 1480 1478 1476 1474 1471 1469 1467 1465 1463 1461 1460 1458 1457 1457 1457 1456 1456 1455 1455 1455 1455 1455
1516 1517 1512 1502 1499 1508 1512 1512 1513 1511 1504 1496 1491 1484 1484 1485 1485 1484 1484 1483 1481 1480 1478 1476 1474 1471 1469 1467 1465 1463 1461 1459 1458 1456 1455 1455 1454 1453 1453 1453 1453 1452 1452 1452
1516 1514 1514 1511 1510 1510 1508 1507 1508 1506 1499 1494 1486 1485 1483 1484 1484 1484 1482 1481 1479 1477 1475 1473 1471 1469 1467 1465 1463 1461 1459 1457 1455 1454 1453 1452 1451 1450 1450 1450 1450 1449 1449 1450
1515 1514 1514 1511 1510 1509 1506 1502 1502 1501 1498 1494 1490 1486 1483 1484 1484 1482 1481 1479 1477 1475 1473 1471 1469 1467 1464 1462 1461 1458 1456 1455 1454 1452 1451 1450 1449 1448 1448 1448 1448 1447 1447 1447
1514 1515 1511 1502 1508 1506 1496 1493 1495 1494 1491 1490 1485 1481 1481 1482 1481 1480 1478 1477 1475 1473 1471 1468 1466 1464 1462 1460 1458 1456 1455 1454 1452 1451 1450 1448 1447 1447 1446 1446 1445 1445 1445 1445
1513 1513 1512 1506 1507 1499 1484 1489 1489 1488 1485 1485 1482 1480 1481 1480 1479 1477 1476 1474 1472 1470 1468 1465 1463 1461 1459 1458 1456 1455 1453 1452 1451 1449 1448 1447 1446 1445 1444 1443 1443 1443 1443 1443
1511 1512 1510 1508 1499 1487 1483 1487 1489 1488 1482 1481 1480 1479 1479 1479 1477 1474 1473 1472 1470 1468 1466 1463 1461 1459 1457 1455 1454 1452 1451 1450 1448 1447 1446 1445 1444 1443 1442 1442 1442 1442 1441 1441
1513 1512 1510 1507 1499 1486 1478 1485 1485 1487 1479 1477 1477 1476 1477 1477 1473 1470 1470 1469 1467 1465 1463 1461 1458 1456 1454 1453 1451 1450 1449 1447 1446 1446 1445 1444 1443 1442 1441 1441 1441 1440 1440 1440
1509 1509 1508 1503 1496 1481 1481 1484 1485 1482 1474 1475 1474 1474 1474 1474 1472 1470 1467 1466 1465 1463 1461 1458 1456 1454 1452 1451 1449 1448 1447 1446 1445 1444 1443 1442 1442 1441 1440 1440 1439 1438 1438 1438
1498 1498 1500 1498 1494 1482 1480 1482 1481 1475 1474 1473 1472 1472 1471 1470 1469 1467 1465 1463 1462 1460 1458 1456 1454 1452 1450 1449 1448 1447 1445 1444 1443 1443 1442 1441 1440 1439 1439 1438 1438 1437 1437 1436
1494 1490 1487 1486 1479 1475 1476 1475 1474 1473 1473 1471 1470 1469 1469 1467 1466 1464 1462 1461 1459 1458 1456 1454 1452 1450 1449 1448 1447 1445 1444 1443 1442 1441 1440 1439 1439 1438 1438 1437 1437 1436 1436 1436
1488 1490 1488 1484 1474 1474 1473 1472 1472 1471 1470 1469 1468 1467 1466 1464 1463 1461 1460 1458 1457 1455 1453 1452 1450 1448 1447 1446 1445 1444 1443 1442 1441 1440 1439 1438 1438 1437 1437 1436 1436 1436 1435 1435
1480 1484 1482 1478 1472 1471 1467 1468 1468 1468 1467 1466 1465 1464 1463 1462 1460 1459 1457 1455 1454 1453 1451 1450 1448 1447 1445 1444 1443 1442 1442 1441 1440 1439 1438 1437 1437 1436 1436 1435 1435 1435 1435 1435
1474 1474 1473 1466 1465 1466 1463 1463 1464 1464 1463 1462 1461 1460 1460 1459 1457 1456 1455 1453 1452 1450 1449 1448 1446 1445 1443 1442 1441 1441 1440 1439 1438 1437 1437 1436 1436 1435 1435 1435 1434 1434 1434 1434